TimeCDT,TemperatureF,Dew PointF,Humidity,Sea Level PressureIn,VisibilityMPH,Wind Direction,Wind SpeedMPH,Gust SpeedMPH,PrecipitationIn,Events,Conditions,WindDirDegrees,DateUTC
12:15 AM,51.4,35.8,55,29.82,10.0,Calm,Calm,-,N/A,,Clear,0,2012-10-09 05:15:00
12:35 AM,49.6,37.2,62,29.82,10.0,SSE,3.5,-,N/A,,Clear,160,2012-10-09 05:35:00
12:55 AM,51.8,34.7,52,29.81,10.0,SSE,5.8,-,N/A,,Clear,150,2012-10-09 05:55:00
1:15 AM,52.7,34.2,49,29.81,10.0,SSE,3.5,-,N/A,,Clear,150,2012-10-09 06:15:00
1:55 AM,48.4,35.6,61,29.82,10.0,Calm,Calm,-,N/A,,Clear,0,2012-10-09 06:55:00
2:15 AM,46.8,36.7,68,29.83,10.0,Calm,Calm,-,N/A,,Clear,0,2012-10-09 07:15:00
3:15 AM,48.7,34.2,57,29.82,10.0,SSE,3.5,-,N/A,,Clear,160,2012-10-09 08:15:00
3:35 AM,46.0,34.3,64,29.82,10.0,SE,4.6,-,N/A,,Clear,140,2012-10-09 08:35:00
3:55 AM,46.8,34.3,62,29.81,10.0,SE,4.6,-,N/A,,Clear,140,2012-10-09 08:55:00
4:15 AM,45.9,34.7,65,29.80,10.0,ESE,3.5,-,N/A,,Clear,110,2012-10-09 09:15:00
4:35 AM,45.5,34.3,65,29.80,10.0,SE,3.5,-,N/A,,Clear,130,2012-10-09 09:35:00
4:55 AM,45.3,34.9,67,29.80,10.0,Calm,Calm,-,N/A,,Clear,0,2012-10-09 09:55:00
5:15 AM,43.7,35.1,72,29.81,10.0,Calm,Calm,-,N/A,,Clear,0,2012-10-09 10:15:00
5:35 AM,43.3,34.9,72,29.82,10.0,Calm,Calm,-,N/A,,Clear,0,2012-10-09 10:35:00
5:55 AM,43.2,34.9,73,29.82,10.0,Calm,Calm,-,N/A,,Clear,0,2012-10-09 10:55:00
6:15 AM,42.6,36.0,77,29.82,10.0,Calm,Calm,-,N/A,,Clear,0,2012-10-09 11:15:00
6:55 AM,44.2,37.0,76,29.85,10.0,Calm,Calm,-,N/A,,Clear,0,2012-10-09 11:55:00
7:15 AM,44.8,36.9,74,29.85,10.0,Calm,Calm,-,N/A,,Clear,0,2012-10-09 12:15:00
7:35 AM,44.2,37.2,76,29.86,10.0,Calm,Calm,-,N/A,,Clear,0,2012-10-09 12:35:00
7:55 AM,46.6,37.6,71,29.86,10.0,WNW,3.5,-,N/A,,Clear,300,2012-10-09 12:55:00
8:15 AM,46.8,38.1,72,29.87,10.0,Calm,Calm,-,N/A,,Clear,0,2012-10-09 13:15:00
8:35 AM,47.7,38.5,70,29.88,10.0,NW,5.8,-,N/A,,Clear,310,2012-10-09 13:35:00
8:55 AM,48.6,39.6,71,29.89,10.0,WNW,4.6,-,N/A,,Clear,290,2012-10-09 13:55:00
9:15 AM,51.6,42.6,71,29.89,10.0,NNW,6.9,-,N/A,,Clear,330,2012-10-09 14:15:00
9:35 AM,52.9,43.2,70,29.90,10.0,North,4.6,16.1,N/A,,Clear,350,2012-10-09 14:35:00
9:55 AM,53.6,43.5,69,29.90,10.0,NNW,11.5,20.7,N/A,,Clear,340,2012-10-09 14:55:00
10:15 AM,53.6,43.7,69,29.91,10.0,NNW,13.8,21.9,N/A,,Clear,340,2012-10-09 15:15:00
10:35 AM,53.4,42.8,67,29.92,10.0,NNW,10.4,24.2,N/A,,Clear,340,2012-10-09 15:35:00
10:55 AM,53.8,41.9,64,29.94,10.0,NNW,13.8,24.2,N/A,,Clear,330,2012-10-09 15:55:00
11:15 AM,53.8,40.6,61,29.94,10.0,NNW,11.5,25.3,N/A,,Clear,330,2012-10-09 16:15:00
11:55 AM,51.8,39.2,62,29.97,10.0,North,13.8,25.3,N/A,,Mostly Cloudy,350,2012-10-09 16:55:00
12:15 PM,51.8,39.4,63,29.97,10.0,NNW,16.1,23.0,N/A,,Scattered Clouds,330,2012-10-09 17:15:00
12:35 PM,52.0,35.8,54,29.98,10.0,NNW,12.7,19.6,N/A,,Scattered Clouds,340,2012-10-09 17:35:00
12:55 PM,51.8,32.7,48,29.98,10.0,NNW,13.8,23.0,N/A,,Mostly Cloudy,330,2012-10-09 17:55:00
1:15 PM,52.9,31.8,45,29.98,10.0,NNW,10.4,20.7,N/A,,Scattered Clouds,340,2012-10-09 18:15:00
1:35 PM,54.1,28.2,37,29.97,10.0,NNW,12.7,21.9,N/A,,Mostly Cloudy,340,2012-10-09 18:35:00
1:55 PM,53.4,27.9,37,29.98,10.0,NNW,13.8,20.7,N/A,,Scattered Clouds,330,2012-10-09 18:55:00
2:15 PM,53.6,27.3,36,29.98,10.0,NNW,11.5,21.9,N/A,,Clear,330,2012-10-09 19:15:00
2:35 PM,53.1,28.4,39,29.97,10.0,NNW,9.2,18.4,N/A,,Scattered Clouds,330,2012-10-09 19:35:00
2:55 PM,52.9,26.4,36,29.98,10.0,NW,9.2,20.7,N/A,,Mostly Cloudy,320,2012-10-09 19:55:00
3:15 PM,53.1,25.0,34,29.99,10.0,NW,15.0,21.9,N/A,,Mostly Cloudy,320,2012-10-09 20:15:00
3:35 PM,52.7,26.1,36,30.00,10.0,NW,12.7,18.4,N/A,,Overcast,320,2012-10-09 20:35:00
3:55 PM,52.7,26.4,36,30.00,10.0,NNW,12.7,17.3,N/A,,Overcast,340,2012-10-09 20:55:00
4:15 PM,53.1,25.5,34,30.01,10.0,NNW,12.7,23.0,N/A,,Scattered Clouds,330,2012-10-09 21:15:00
4:35 PM,52.7,25.9,35,30.00,10.0,NW,9.2,-,N/A,,Clear,310,2012-10-09 21:35:00
4:55 PM,52.9,26.1,35,30.01,10.0,NW,9.2,16.1,N/A,,Clear,320,2012-10-09 21:55:00
5:15 PM,53.1,26.1,35,30.01,10.0,NW,9.2,20.7,N/A,,Clear,320,2012-10-09 22:15:00
5:35 PM,53.6,26.1,35,30.01,10.0,NW,8.1,-,N/A,,Clear,310,2012-10-09 22:35:00
5:55 PM,54.5,25.5,33,30.01,10.0,NW,10.4,-,N/A,,Clear,310,2012-10-09 22:55:00
6:15 PM,53.8,25.3,33,30.01,10.0,NW,6.9,-,N/A,,Clear,310,2012-10-09 23:15:00
6:35 PM,52.7,25.7,35,30.02,10.0,NW,8.1,-,N/A,,Clear,310,2012-10-09 23:35:00
6:55 PM,51.3,25.9,37,30.03,10.0,NW,4.6,-,N/A,,Clear,320,2012-10-09 23:55:00
7:15 PM,52.7,23.2,32,30.03,10.0,NNW,6.9,-,N/A,,Clear,330,2012-10-10 00:15:00
7:35 PM,52.0,23.0,32,30.05,10.0,NW,8.1,-,N/A,,Clear,320,2012-10-10 00:35:00
7:55 PM,50.9,24.3,35,30.06,10.0,NNW,4.6,-,N/A,,Clear,330,2012-10-10 00:55:00
8:15 PM,49.1,24.3,38,30.07,10.0,WNW,4.6,-,N/A,,Clear,300,2012-10-10 01:15:00
8:35 PM,47.5,24.8,41,30.08,10.0,NW,4.6,-,N/A,,Clear,320,2012-10-10 01:35:00
8:55 PM,47.3,25.7,43,30.08,10.0,NW,5.8,-,N/A,,Clear,320,2012-10-10 01:55:00
9:15 PM,46.6,26.4,45,30.09,10.0,Calm,Calm,-,N/A,,Clear,0,2012-10-10 02:15:00
9:35 PM,45.9,26.4,47,30.10,10.0,Calm,Calm,-,N/A,,Clear,0,2012-10-10 02:35:00
9:55 PM,44.4,26.6,50,30.11,10.0,WNW,3.5,-,N/A,,Clear,300,2012-10-10 02:55:00
10:15 PM,41.9,27.3,56,30.13,10.0,Calm,Calm,-,N/A,,Clear,0,2012-10-10 03:15:00
10:35 PM,40.3,27.9,61,30.13,10.0,Calm,Calm,-,N/A,,Clear,0,2012-10-10 03:35:00
10:55 PM,38.8,31.1,74,30.14,10.0,Calm,Calm,-,N/A,,Clear,0,2012-10-10 03:55:00
11:15 PM,37.8,30.2,74,30.15,10.0,Calm,Calm,-,N/A,,Clear,0,2012-10-10 04:15:00
11:35 PM,37.8,30.0,74,30.15,10.0,Calm,Calm,-,N/A,,Clear,0,2012-10-10 04:35:00
11:55 PM,36.7,31.8,83,30.15,10.0,Calm,Calm,-,N/A,,Clear,0,2012-10-10 04:55:00